STARLINK-33833, 63498

Orbit data source: Space-Track

STARLINK-33833, 63498 is a payload satellite owned by SpaceX/Seattle (US) in LEO that was launched on Mon, 07 Apr 2025 UTC via an FALCON 9 launch vehicle from the Air Force Western Test Range (AFWTR). Payload-class satellites include a variety of spacecraft equipped with specific instruments for various scientific and technological missions. These include communications satellites like Starlink; space stations such as the ISS; scientific satellites like the Hubble; Earth observation satellites from companies like Planet Labs, Umbra, and HawkEye 360; GPS; miniature CubeSats for education and research; and military/defense satellites.

Loading next visibility...
Identifier
63498, 2025-071F
Orbit
LEO
Country
Flag of USUS
Related business
Manufacturer
SpaceX/Seattle
Mission
Operational Commercial Communications
Bus & Motor
STARLINK V2MO, Unknown motor
Mass
575 kg wet, ~530 kg dry
Launch date (UTC)
2025-04-07 (1 year ago)
Launch vehicle
FALCON 9
Launch site
Air Force Western Test Range (AFWTR)
Object type
Payload
Rocket body
Debris
Shape & HBR
Box + 1 Pan, 17.7 m
Radar Cross Section
41.120 m², Large (>1 m²)

Expand to show TLE details & history
Last TLE update: 2 days ago

TLE from 2 days ago
0 STARLINK-33833
1 63498U 25071F   26261.88781772  .00021902  00000-0  71508-3 0  9998
2 63498  53.1605 321.5301 0001384  80.9601 279.1557 15.31717558 82365
Epoch: 2026-09-18T21:18Z
TLE epoch observation values (Epoch: 2026-09-18T21:18:27.451Z)
Latitude
Longitude
4.11147°
Altitude
471.437 km
Speed
7.632 km/s
True Right ascension
21h 26m 07s
True Declination
0° 00' 00"
Sunlit
Object was in full shadow at epoch
Visualization orbit readout
Latitude
Unknown
Longitude
Unknown
Altitude
Unknown
Speed
Unknown
Apparent Right ascension
Unknown
Apparent Declination
Unknown
Sunlit
N/A
Visualization observer readout
Local Sidereal Time
03:48:58
Azimuth
Unknown
Elevation
Unknown
Doppler factor
Unknown
Orbital elements
Apogee altitude
471.892 km
Perigee altitude
469.996 km
Semi-major axis
6,849.081 km
Eccentricity
0.00014
Inclination
53.1605°
RAAN
321.5301°
Arg. of periapsis
80.9601°
True anomaly
279.14004°
Mean anomaly
279.1557°
Eccentric anomaly
279.14787°
Mean motion
3.82908 °/min
Orbital period
94.02 mins
BSTAR
0.00071508
Loading maneuver chart data...
Computing Atmospheric mass density...
Loading historical data...
Loading historical data...
Loading historical data...
Loading historical data...
Loading historical data...
Loading historical data...
Loading historical data...

Documentation

Showing up to 5 results
|